| time (UTC) | temp F | wind direction | speed MPH | gust MPH | rain 1hr in | rain 24hr in | rain mn in | humidity % | barometer mb |
| 20260509171452 | 71 | 287 | 0.0 | 3.0 | 0.00 | 0.00 | 0.00 | 56 | 1010.5 |
| 20260509170453 | 71 | 13 | 3.0 | 3.0 | 0.00 | 0.00 | 0.00 | 62 | 1010.5 |
| 20260509164452 | 72 | 275 | 0.0 | 3.0 | 0.00 | 0.00 | 0.00 | 58 | 1010.5 |
| 20260509163452 | 72 | 36 | 2.0 | 3.0 | 0.00 | 0.00 | 0.00 | 62 | 1010.5 |
| 20260509162452 | 71 | 87 | 1.0 | 3.0 | 0.00 | 0.00 | 0.00 | 59 | 1010.7 |
| 20260509161453 | 70 | 143 | 1.0 | 5.0 | 0.00 | 0.00 | 0.00 | 61 | 1010.8 |
| 20260509160452 | 71 | 188 | 0.0 | 3.0 | 0.00 | 0.00 | 0.00 | 63 | 1010.8 |
| 20260509154523 | 70 | 324 | 0.0 | 3.0 | 0.00 | 0.00 | 0.00 | 63 | 1011.1 |
| 20260509153453 | 69 | 217 | 0.0 | 1.0 | 0.00 | 0.00 | 0.00 | 68 | 1010.9 |
| 20260509152453 | 68 | 202 | 4.0 | 6.0 | 0.00 | 0.00 | 0.00 | 64 | 1011.0 |
| 20260509151453 | 68 | 225 | 4.0 | 4.0 | 0.00 | 0.00 | 0.00 | 65 | 1011.3 |
| 20260509150453 | 68 | 259 | 0.0 | 3.0 | 0.00 | 0.00 | 0.00 | 64 | 1011.6 |
| 20260509145452 | 68 | 220 | 0.0 | 6.0 | 0.00 | 0.00 | 0.00 | 63 | 1011.7 |
| 20260509144453 | 68 | 262 | 0.0 | 3.0 | 0.00 | 0.00 | 0.00 | 64 | 1011.8 |
| 20260509143453 | 67 | 287 | 2.0 | 5.0 | 0.00 | 0.00 | 0.00 | 65 | 1012.0 |
| 20260509142453 | 67 | 209 | 2.0 | 9.0 | 0.00 | 0.00 | 0.00 | 67 | 1012.1 |
| 20260509141523 | 66 | 274 | 0.0 | 1.0 | 0.00 | 0.00 | 0.00 | 70 | 1012.1 |
| 20260509140453 | 66 | 271 | 2.0 | 2.0 | 0.00 | 0.00 | 0.00 | 68 | 1012.3 |
| 20260509135453 | 66 | 165 | 0.0 | 3.0 | 0.00 | 0.00 | 0.00 | 70 | 1012.2 |
| 20260509134453 | 66 | 221 | 0.0 | 1.0 | 0.00 | 0.00 | 0.00 | 69 | 1012.3 |
| 20260509133453 | 65 | 134 | 0.0 | 2.0 | 0.00 | 0.00 | 0.00 | 70 | 1012.3 |
| 20260509132453 | 65 | 188 | 3.0 | 3.0 | 0.00 | 0.00 | 0.00 | 70 | 1012.3 |
| 20260509131453 | 65 | 223 | 0.0 | 4.0 | 0.00 | 0.00 | 0.00 | 70 | 1012.3 |
| 20260509130453 | 64 | 260 | 0.0 | 2.0 | 0.00 | 0.00 | 0.00 | 72 | 1012.3 |
| 20260509125453 | 63 | 254 | 0.0 | 0.0 | 0.00 | 0.00 | 0.00 | 74 | 1012.3 |
| 20260509124453 | 63 | 233 | 0.0 | 2.0 | 0.00 | 0.00 | 0.00 | 75 | 1012.4 |
| 20260509123453 | 62 | 87 | 1.0 | 1.0 | 0.00 | 0.00 | 0.00 | 76 | 1012.5 |
| 20260509122453 | 62 | 319 | 0.0 | 2.0 | 0.00 | 0.00 | 0.00 | 76 | 1012.3 |
| 20260509121453 | 61 | 104 | 0.0 | 0.0 | 0.00 | 0.00 | 0.00 | 77 | 1012.4 |
| 20260509120453 | 61 | 130 | 2.0 | 3.0 | 0.00 | 0.00 | 0.00 | 77 | 1012.4 |
| 20260509115453 | 60 | 236 | 0.0 | 4.0 | 0.00 | 0.00 | 0.00 | 77 | 1012.4 |
| 20260509114453 | 59 | 206 | 0.0 | 4.0 | 0.00 | 0.00 | 0.00 | 79 | 1012.4 |
| 20260509113453 | 59 | 180 | 0.0 | 0.0 | 0.00 | 0.00 | 0.00 | 80 | 1012.5 |
| 20260509112453 | 58 | 182 | 0.0 | 0.0 | 0.00 | 0.00 | 0.00 | 81 | 1012.4 |
| 20260509111453 | 58 | 309 | 0.0 | 0.0 | 0.00 | 0.00 | 0.00 | 81 | 1012.4 |
| 20260509110453 | 57 | 342 | 0.0 | 1.0 | 0.00 | 0.00 | 0.00 | 82 | 1012.5 |
| 20260509105453 | 56 | 293 | 0.0 | 1.0 | 0.00 | 0.00 | 0.00 | 82 | 1012.6 |
| 20260509104453 | 56 | 195 | 0.0 | 0.0 | 0.00 | 0.00 | 0.00 | 83 | 1012.5 |
| 20260509103453 | 56 | 350 | 0.0 | 0.0 | 0.00 | 0.00 | 0.00 | 83 | 1012.5 |
| 20260509102453 | 56 | 350 | 0.0 | 0.0 | 0.00 | 0.00 | 0.00 | 83 | 1012.5 |
| 20260509101453 | 55 | 243 | 1.0 | 1.0 | 0.00 | 0.00 | 0.00 | 84 | 1012.5 |
| 20260509100523 | 55 | 84 | 0.0 | 0.0 | 0.00 | 0.00 | 0.00 | 84 | 1012.4 |
| 20260509095453 | 55 | 115 | 0.0 | 0.0 | 0.00 | 0.01 | 0.00 | 84 | 1012.4 |
| 20260509094453 | 55 | 214 | 0.0 | 0.0 | 0.00 | 0.01 | 0.00 | 84 | 1012.4 |
| 20260509093453 | 56 | 229 | 0.0 | 0.0 | 0.00 | 0.01 | 0.00 | 83 | 1012.4 |
| 20260509092453 | 56 | 229 | 0.0 | 0.0 | 0.00 | 0.01 | 0.00 | 83 | 1012.4 |
| 20260509091453 | 56 | 231 | 0.0 | 0.0 | 0.00 | 0.01 | 0.00 | 82 | 1012.3 |
| 20260509090453 | 56 | 229 | 0.0 | 0.0 | 0.00 | 0.01 | 0.00 | 82 | 1012.3 |
| 20260509084523 | 57 | 230 | 0.0 | 2.0 | 0.00 | 0.01 | 0.00 | 81 | 1012.2 |
| 20260509082453 | 58 | 186 | 0.0 | 1.0 | 0.00 | 0.01 | 0.00 | 80 | 1012.3 |
| 20260509081453 | 58 | 210 | 0.0 | 3.0 | 0.00 | 0.01 | 0.00 | 79 | 1012.2 |
| 20260509080523 | 58 | 271 | 0.0 | 1.0 | 0.00 | 0.01 | 0.00 | 79 | 1012.4 |
| 20260509075453 | 58 | 200 | 0.0 | 2.0 | 0.00 | 0.01 | 0.00 | 79 | 1012.4 |
| 20260509074453 | 58 | 250 | 0.0 | 1.0 | 0.00 | 0.01 | 0.00 | 78 | 1012.4 |
| 20260509073453 | 59 | 188 | 0.0 | 1.0 | 0.00 | 0.01 | 0.00 | 78 | 1012.6 |
| 20260509072453 | 59 | 144 | 0.0 | 3.0 | 0.00 | 0.01 | 0.00 | 77 | 1012.7 |
| 20260509071453 | 59 | 229 | 0.0 | 2.0 | 0.00 | 0.01 | 0.00 | 76 | 1012.7 |
| 20260509070453 | 59 | 225 | 4.0 | 4.0 | 0.00 | 0.01 | 0.00 | 75 | 1012.7 |
| 20260509065453 | 59 | 190 | 0.0 | 1.0 | 0.00 | 0.01 | 0.00 | 75 | 1012.7 |
| 20260509064453 | 59 | 319 | 0.0 | 3.0 | 0.00 | 0.01 | 0.00 | 74 | 1012.6 |
| 20260509062523 | 59 | 172 | 0.0 | 0.0 | 0.00 | 0.01 | 0.00 | 74 | 1012.9 |
| 20260509061453 | 58 | 198 | 0.0 | 0.0 | 0.00 | 0.01 | 0.00 | 76 | 1012.9 |
| 20260509060523 | 58 | 245 | 0.0 | 0.0 | 0.00 | 0.01 | 0.00 | 77 | 1012.8 |
| 20260509055453 | 57 | 254 | 0.0 | 0.0 | 0.00 | 0.01 | 0.00 | 78 | 1012.7 |
| 20260509054453 | 56 | 209 | 0.0 | 0.0 | 0.00 | 0.01 | 0.00 | 80 | 1012.7 |
| 20260509053453 | 56 | 221 | 1.0 | 1.0 | 0.00 | 0.01 | 0.00 | 80 | 1012.8 |
| 20260509052453 | 56 | 221 | 0.0 | 1.0 | 0.00 | 0.01 | 0.00 | 79 | 1012.8 |
| 20260509051453 | 56 | 200 | 0.0 | 0.0 | 0.00 | 0.01 | 0.00 | 79 | 1012.9 |
| 20260509050453 | 56 | 199 | 0.0 | 1.0 | 0.00 | 0.01 | 0.00 | 79 | 1012.9 |
| 20260509045453 | 56 | 187 | 0.0 | 0.0 | 0.00 | 0.01 | 0.00 | 79 | 1012.8 |
| 20260509044453 | 56 | 213 | 0.0 | 0.0 | 0.00 | 0.01 | 0.00 | 78 | 1012.9 |
| 20260509042523 | 57 | 223 | 0.0 | 0.0 | 0.00 | 0.01 | 0.00 | 78 | 1013.0 |
| 20260509041453 | 57 | 175 | 0.0 | 2.0 | 0.00 | 0.01 | 0.00 | 77 | 1013.1 |
| 20260509040523 | 57 | 306 | 0.0 | 0.0 | 0.00 | 0.01 | 0.01 | 76 | 1013.2 |
| 20260509035453 | 57 | 277 | 0.0 | 0.0 | 0.00 | 0.01 | 0.01 | 76 | 1013.2 |
| 20260509034453 | 57 | 277 | 0.0 | 0.0 | 0.00 | 0.01 | 0.01 | 75 | 1013.4 |
| 20260509032453 | 57 | 193 | 0.0 | 0.0 | 0.00 | 0.01 | 0.01 | 75 | 1013.4 |
| 20260509031453 | 57 | 234 | 0.0 | 0.0 | 0.00 | 0.01 | 0.01 | 74 | 1013.4 |
| 20260509030453 | 57 | 235 | 0.0 | 0.0 | 0.00 | 0.01 | 0.01 | 74 | 1013.4 |
| 20260509025453 | 57 | 311 | 0.0 | 0.0 | 0.00 | 0.01 | 0.01 | 73 | 1013.5 |
| 20260509024523 | 57 | 207 | 0.0 | 2.0 | 0.00 | 0.01 | 0.01 | 73 | 1013.4 |
| 20260509023453 | 57 | 257 | 0.0 | 0.0 | 0.00 | 0.01 | 0.01 | 72 | 1013.3 |
| 20260509022453 | 58 | 255 | 0.0 | 0.0 | 0.00 | 0.01 | 0.01 | 71 | 1013.4 |
| 20260509021453 | 58 | 256 | 0.0 | 0.0 | 0.00 | 0.01 | 0.01 | 69 | 1013.3 |
| 20260509020523 | 59 | 256 | 0.0 | 0.0 | 0.00 | 0.01 | 0.01 | 67 | 1013.3 |
| 20260509015453 | 59 | 253 | 1.0 | 2.0 | 0.00 | 0.01 | 0.01 | 67 | 1013.2 |
| 20260509014453 | 59 | 208 | 0.0 | 0.0 | 0.00 | 0.01 | 0.01 | 66 | 1013.2 |
| 20260509013453 | 60 | 276 | 0.0 | 2.0 | 0.00 | 0.01 | 0.01 | 65 | 1013.2 |
| 20260509012453 | 60 | 341 | 0.0 | 0.0 | 0.00 | 0.01 | 0.01 | 63 | 1013.1 |
| 20260509011453 | 60 | 316 | 0.0 | 0.0 | 0.00 | 0.01 | 0.01 | 65 | 1012.9 |
| 20260509010453 | 61 | 24 | 0.0 | 0.0 | 0.00 | 0.01 | 0.01 | 64 | 1012.8 |
| 20260509005453 | 61 | 148 | 0.0 | 0.0 | 0.00 | 0.01 | 0.01 | 64 | 1012.8 |
| 20260509004453 | 61 | 148 | 0.0 | 0.0 | 0.00 | 0.01 | 0.01 | 64 | 1012.7 |
| 20260509003524 | 61 | 108 | 0.0 | 0.0 | 0.00 | 0.01 | 0.01 | 64 | 1012.7 |
| 20260509002523 | 62 | 103 | 0.0 | 0.0 | 0.00 | 0.01 | 0.01 | 63 | 1012.7 |
| 20260509001453 | 62 | 53 | 0.0 | 0.0 | 0.00 | 0.01 | 0.01 | 62 | 1012.6 |
| 20260509000455 | 62 | 46 | 0.0 | 0.0 | 0.00 | 0.01 | 0.01 | 62 | 1012.5 |
| 20260508235453 | 62 | 252 | 0.0 | 0.0 | 0.00 | 0.01 | 0.01 | 61 | 1012.5 |
| 20260508234453 | 63 | 338 | 0.0 | 0.0 | 0.00 | 0.01 | 0.01 | 59 | 1012.4 |
| 20260508233453 | 64 | 245 | 0.0 | 0.0 | 0.00 | 0.01 | 0.01 | 57 | 1012.3 |
| 20260508232453 | 64 | 246 | 0.0 | 0.0 | 0.00 | 0.01 | 0.01 | 56 | 1012.2 |
| 20260508231454 | 65 | 336 | 0.0 | 0.0 | 0.00 | 0.01 | 0.01 | 55 | 1012.1 |
| 20260508230453 | 65 | 72 | 0.0 | 1.0 | 0.00 | 0.01 | 0.01 | 53 | 1012.1 |
| 20260508225453 | 66 | 91 | 0.0 | 0.0 | 0.00 | 0.01 | 0.01 | 53 | 1012.0 |
| 20260508224453 | 66 | 91 | 0.0 | 0.0 | 0.00 | 0.01 | 0.01 | 52 | 1012.1 |
| 20260508223453 | 67 | 91 | 0.0 | 0.0 | 0.00 | 0.01 | 0.01 | 46 | 1012.2 |
| 20260508222453 | 67 | 49 | 0.0 | 1.0 | 0.00 | 0.01 | 0.01 | 49 | 1012.3 |
| 20260508221453 | 67 | 165 | 1.0 | 3.0 | 0.00 | 0.01 | 0.01 | 46 | 1012.2 |
| 20260508220453 | 67 | 140 | 0.0 | 3.0 | 0.00 | 0.01 | 0.01 | 45 | 1012.2 |
| 20260508215454 | 68 | 34 | 0.0 | 2.0 | 0.00 | 0.01 | 0.01 | 49 | 1012.2 |
| 20260508214454 | 69 | 131 | 2.0 | 2.0 | 0.00 | 0.01 | 0.01 | 44 | 1012.1 |
| 20260508213454 | 70 | 245 | 2.0 | 3.0 | 0.00 | 0.01 | 0.01 | 43 | 1012.2 |
| 20260508212523 | 70 | 225 | 0.0 | 1.0 | 0.00 | 0.01 | 0.01 | 38 | 1012.3 |
| 20260508211524 | 70 | 167 | 1.0 | 3.0 | 0.00 | 0.01 | 0.01 | 38 | 1012.3 |
| 20260508210454 | 70 | 205 | 6.0 | 6.0 | 0.00 | 0.01 | 0.01 | 37 | 1012.4 |
| 20260508205454 | 70 | 206 | 1.0 | 4.0 | 0.00 | 0.01 | 0.01 | 40 | 1012.4 |
| 20260508204454 | 70 | 170 | 1.0 | 3.0 | 0.00 | 0.01 | 0.01 | 40 | 1012.5 |
| 20260508203454 | 70 | 200 | 2.0 | 2.0 | 0.00 | 0.01 | 0.01 | 38 | 1012.6 |
| 20260508202524 | 70 | 200 | 0.0 | 3.0 | 0.00 | 0.01 | 0.01 | 40 | 1012.7 |
| 20260508201454 | 70 | 35 | 1.0 | 4.0 | 0.00 | 0.01 | 0.01 | 39 | 1012.9 |
| 20260508200454 | 70 | 275 | 3.0 | 3.0 | 0.00 | 0.01 | 0.01 | 39 | 1012.8 |
| 20260508194454 | 70 | 223 | 0.0 | 3.0 | 0.00 | 0.02 | 0.01 | 39 | 1013.2 |
| 20260508193454 | 69 | 225 | 1.0 | 4.0 | 0.00 | 0.03 | 0.01 | 38 | 1013.2 |
| 20260508192454 | 69 | 140 | 3.0 | 3.0 | 0.00 | 0.03 | 0.01 | 39 | 1013.4 |
| 20260508191454 | 70 | 274 | 0.0 | 2.0 | 0.00 | 0.03 | 0.01 | 39 | 1013.5 |
| 20260508190454 | 69 | 275 | 0.0 | 7.0 | 0.00 | 0.03 | 0.01 | 38 | 1013.6 |
| 20260508185454 | 69 | 124 | 0.0 | 3.0 | 0.00 | 0.03 | 0.01 | 38 | 1013.8 |
| 20260508184454 | 70 | 261 | 2.0 | 3.0 | 0.00 | 0.03 | 0.01 | 44 | 1013.9 |
| 20260508183453 | 68 | 260 | 2.0 | 3.0 | 0.00 | 0.03 | 0.01 | 42 | 1013.9 |
| 20260508182454 | 68 | 184 | 0.0 | 5.0 | 0.00 | 0.03 | 0.01 | 42 | 1014.1 |
| 20260508181454 | 68 | 288 | 2.0 | 3.0 | 0.00 | 0.03 | 0.01 | 40 | 1014.3 |
| 20260508180454 | 68 | 266 | 0.0 | 2.0 | 0.00 | 0.03 | 0.01 | 41 | 1014.3 |
| 20260508175454 | 68 | 223 | 2.0 | 4.0 | 0.00 | 0.03 | 0.01 | 41 | 1014.4 |
| 20260508174454 | 67 | 88 | 1.0 | 4.0 | 0.00 | 0.03 | 0.01 | 40 | 1014.5 |
| 20260508173454 | 67 | 217 | 0.0 | 3.0 | 0.00 | 0.03 | 0.01 | 45 | 1014.5 |
| 20260508172454 | 66 | 171 | 2.0 | 2.0 | 0.00 | 0.03 | 0.01 | 40 | 1014.6 |